GW7443 Weather Reports


time (UTC)temp
C
wind
direction
speed
KPH
gust
KPH
rain 1hr
cm
rain 24hr
cm
rain mn
cm
humidity
%
barometer
mb
20260906162513 25 127 3.2 11.3 0.00 0.00 0.00 85 1017.3
20260906162013 25 57 6.4 9.7 0.00 0.00 0.00 84 1017.4
20260906161508 25 134 1.6 9.7 0.00 0.00 0.00 84 1017.3
20260906161008 25 142 3.2 16.1 0.00 0.00 0.00 83 1017.3
20260906160506 25 125 8.0 12.9 0.00 0.00 0.00 82 1017.1
20260906160004 25 156 6.4 8.0 0.00 0.00 0.00 83 1017.3
20260906155503 25 138 6.4 8.0 0.00 0.00 0.00 82 1017.3
20260906154959 26 145 8.0 16.1 0.00 0.00 0.00 81 1017.4
20260906154455 26 74 3.2 6.4 0.00 0.00 0.00 80 1017.2
20260906153952 26 140 6.4 8.0 0.00 0.00 0.00 81 1017.2
20260906153451 26 137 3.2 8.0 0.00 0.00 0.00 81 1017.4
20260906152947 25 147 9.7 9.7 0.00 0.00 0.00 81 1017.2
20260906152447 25 128 6.4 9.7 0.00 0.00 0.00 82 1017.1
20260906151946 26 171 6.4 12.9 0.00 0.00 0.00 82 1017.1
20260906151442 25 142 9.7 9.7 0.00 0.00 0.00 81 1017.2
20260906150938 25 139 8.0 12.9 0.00 0.00 0.00 82 1017.2
20260906150433 25 152 9.7 14.5 0.00 0.00 0.00 82 1017.1
20260906145932 25 144 3.2 9.7 0.00 0.00 0.00 83 1017.3
20260906145432 25 166 4.8 6.4 0.00 0.00 0.00 84 1017.2
20260906144927 25 21 1.6 8.0 0.00 0.00 0.00 84 1017.3
20260906144427 25 192 1.6 4.8 0.00 0.00 0.00 82 1017.0
20260906143922 25 147 4.8 11.3 0.00 0.00 0.00 84 1017.0
20260906143418 25 169 4.8 11.3 0.00 0.00 0.00 85 1017.2
20260906142913 24 144 4.8 4.8 0.00 0.00 0.00 87 1017.3
20260906142408 23 180 3.2 3.2 0.00 0.00 0.00 88 1017.4
20260906141908 23 196 1.6 3.2 0.00 0.00 0.00 90 1017.4
20260906141402 23 169 1.6 3.2 0.00 0.00 0.00 90 1017.4
20260906140902 23 147 6.4 8.0 0.00 0.00 0.00 91 1017.3
20260906140356 23 180 3.2 8.0 0.00 0.00 0.00 91 1017.4
20260906135855 23 168 4.8 9.7 0.00 0.00 0.00 91 1017.3
20260906135354 23 156 8.0 9.7 0.00 0.00 0.00 91 1017.4
20260906134850 23 159 3.2 8.0 0.00 0.00 0.00 92 1017.1
20260906134344 23 149 9.7 9.7 0.00 0.00 0.00 92 1017.1
20260906133840 22 115 3.2 6.4 0.00 0.00 0.00 93 1017.1
20260906133336 22 152 0.0 3.2 0.00 0.00 0.00 93 1017.1
20260906132831 22 168 3.2 6.4 0.00 0.00 0.00 93 1017.3
20260906132326 22 158 1.6 6.4 0.00 0.00 0.00 93 1017.3
20260906131822 22 147 4.8 6.4 0.00 0.00 0.00 93 1017.3
20260906131317 22 157 4.8 6.4 0.00 0.00 0.00 93 1017.2
20260906130813 22 174 0.0 4.8 0.00 0.00 0.00 95 1017.3
20260906130312 22 163 3.2 6.4 0.00 0.00 0.00 95 1016.9
20260906125811 22 151 4.8 6.4 0.00 0.00 0.00 96 1016.8
20260906125309 22 142 4.8 6.4 0.00 0.00 0.00 95 1016.8
20260906124804 21 179 1.6 6.4 0.00 0.00 0.00 95 1016.7
20260906124300 21 111 3.2 8.0 0.00 0.00 0.00 95 1016.6
20260906123759 21 154 0.0 6.4 0.00 0.00 0.00 95 1016.4
20260906123254 21 167 4.8 8.0 0.00 0.00 0.00 95 1016.6
20260906122753 21 203 1.6 8.0 0.00 0.00 0.00 95 1016.5
20260906122249 21 24 1.6 4.8 0.00 0.00 0.00 96 1016.5
20260906121745 21 122 1.6 6.4 0.00 0.00 0.00 96 1016.1
20260906121241 21 154 3.2 6.4 0.00 0.00 0.00 96 1016.3
20260906120737 21 171 4.8 6.4 0.00 0.00 0.00 96 1016.1
20260906120233 21 154 3.2 6.4 0.00 0.00 0.00 96 1016.0
20260906115729 21 153 4.8 8.0 0.00 0.00 0.00 96 1016.0
20260906115224 21 136 1.6 8.0 0.00 0.00 0.00 96 1016.0
20260906114723 21 146 3.2 6.4 0.00 0.00 0.00 96 1015.9
20260906114218 21 161 4.8 6.4 0.00 0.00 0.00 96 1015.9
20260906113714 21 136 6.4 6.4 0.00 0.00 0.00 96 1015.9
20260906113213 21 140 6.4 6.4 0.00 0.00 0.00 96 1015.9
20260906112712 21 129 4.8 8.0 0.00 0.00 0.00 96 1015.8
20260906112210 21 111 3.2 6.4 0.00 0.00 0.00 95 1015.8
20260906111709 21 105 3.2 8.0 0.00 0.00 0.00 95 1015.8
20260906111203 21 118 6.4 6.4 0.00 0.00 0.00 95 1016.0
20260906110659 21 138 1.6 6.4 0.00 0.00 0.00 95 1016.0
20260906110154 21 131 6.4 6.4 0.00 0.00 0.00 95 1016.1
20260906105654 21 144 1.6 9.7 0.00 0.00 0.00 95 1016.1
20260906105150 21 119 8.0 9.7 0.00 0.00 0.00 95 1016.1
20260906104649 21 189 3.2 4.8 0.00 0.00 0.00 95 1016.2
20260906104149 21 145 3.2 6.4 0.00 0.00 0.00 95 1016.0
20260906103647 22 126 3.2 4.8 0.00 0.00 0.00 95 1016.0
20260906103142 22 129 4.8 4.8 0.00 0.00 0.00 95 1016.0
20260906102637 22 116 1.6 3.2 0.00 0.00 0.00 95 1016.0
20260906102137 22 113 3.2 6.4 0.00 0.00 0.00 95 1015.9
20260906101637 22 153 3.2 8.0 0.00 0.00 0.00 95 1015.7
20260906101137 22 107 4.8 6.4 0.00 0.00 0.00 95 1015.7
20260906100632 22 101 4.8 6.4 0.00 0.00 0.00 95 1015.9
20260906100128 22 196 0.0 6.4 0.00 0.00 0.00 95 1016.0
20260906095628 22 117 3.2 4.8 0.00 0.00 0.00 95 1015.9
20260906095123 22 349 1.6 3.2 0.00 0.00 0.00 95 1015.8
20260906094622 22 172 0.0 4.8 0.00 0.00 0.00 95 1015.9
20260906094118 22 169 1.6 6.4 0.00 0.00 0.00 95 1015.8
20260906093615 22 139 3.2 6.4 0.00 0.00 0.00 94 1015.7
20260906093114 22 146 3.2 4.8 0.00 0.00 0.00 94 1015.6
20260906092609 22 116 3.2 6.4 0.00 0.00 0.00 94 1015.5
20260906092104 22 168 3.2 4.8 0.00 0.00 0.00 94 1015.7
20260906091600 22 205 1.6 4.8 0.00 0.00 0.00 94 1015.5
20260906091057 22 102 1.6 6.4 0.00 0.00 0.00 94 1015.3
20260906090556 22 179 1.6 4.8 0.00 0.00 0.00 94 1015.3
20260906090056 22 181 3.2 8.0 0.00 0.00 0.00 94 1015.3
20260906085555 22 161 3.2 6.4 0.00 0.00 0.00 94 1015.3
20260906085050 22 132 1.6 9.7 0.00 0.00 0.00 94 1015.3
20260906084545 22 139 0.0 4.8 0.00 0.00 0.00 94 1015.1
20260906084043 22 171 1.6 6.4 0.00 0.00 0.00 94 1015.1
20260906083539 22 148 3.2 8.0 0.00 0.00 0.00 93 1015.1
20260906083039 22 106 4.8 9.7 0.00 0.00 0.00 93 1014.9
20260906082534 22 149 4.8 9.7 0.00 0.00 0.00 93 1015.2
20260906082030 22 145 8.0 8.0 0.00 0.00 0.00 93 1015.2
20260906081526 22 163 3.2 8.0 0.00 0.00 0.00 93 1015.2
20260906081021 22 180 1.6 11.3 0.00 0.00 0.00 93 1014.8
20260906080517 22 190 3.2 6.4 0.00 0.00 0.00 93 1015.2
20260906080014 23 110 4.8 12.9 0.00 0.00 0.00 93 1014.9
20260906075507 23 116 3.2 11.3 0.00 0.00 0.00 93 1014.8
20260906075002 23 145 4.8 9.7 0.00 0.00 0.00 93 1015.1
20260906074457 23 106 8.0 8.0 0.00 0.00 0.00 93 1015.2
20260906073955 23 138 3.2 8.0 0.00 0.00 0.00 93 1015.2
20260906073450 23 138 4.8 8.0 0.00 0.00 0.00 93 1015.3
20260906072946 23 125 1.6 8.0 0.00 0.00 0.00 93 1015.2
20260906072441 23 118 3.2 11.3 0.00 0.00 0.00 93 1015.3
20260906071937 23 105 6.4 9.7 0.00 0.00 0.00 93 1015.1
20260906071433 23 140 6.4 11.3 0.00 0.00 0.00 93 1014.9
20260906070929 23 136 4.8 12.9 0.00 0.00 0.00 93 1015.2
20260906070425 23 164 3.2 9.7 0.00 0.00 0.00 93 1015.3
20260906065920 23 130 4.8 9.7 0.00 0.00 0.00 93 1015.2
20260906065415 23 101 3.2 4.8 0.00 0.00 0.00 94 1015.5
20260906064910 23 154 4.8 8.0 0.00 0.00 0.00 94 1015.4
20260906064407 23 140 1.6 8.0 0.00 0.00 0.00 94 1015.5
20260906063907 23 162 3.2 6.4 0.00 0.00 0.00 94 1015.5
20260906063402 23 129 3.2 8.0 0.00 0.00 0.00 94 1015.3
20260906062856 23 145 0.0 4.8 0.00 0.00 0.00 94 1015.4
20260906062356 23 156 3.2 4.8 0.00 0.00 0.00 94 1015.4
20260906061851 24 184 0.0 4.8 0.00 0.00 0.00 94 1015.4
20260906061348 24 164 0.0 3.2 0.00 0.00 0.00 93 1015.2
20260906060842 24 199 1.6 3.2 0.00 0.00 0.00 93 1015.2
20260906060340 24 203 1.6 3.2 0.00 0.00 0.00 93 1015.2
20260906055836 24 162 3.2 6.4 0.00 0.00 0.00 93 1015.4
20260906055331 24 126 3.2 6.4 0.00 0.00 0.00 93 1015.4
20260906054826 25 180 0.0 4.8 0.00 0.00 0.00 93 1015.6
20260906054321 25 189 0.0 6.4 0.00 0.00 0.00 93 1015.5
20260906053818 25 160 1.6 4.8 0.00 0.00 0.00 93 1015.5
20260906053313 25 143 1.6 4.8 0.00 0.00 0.00 93 1015.4
20260906052808 25 94 3.2 3.2 0.00 0.00 0.00 93 1015.2
20260906052306 25 118 3.2 4.8 0.00 0.00 0.00 93 1015.3
20260906051801 25 168 1.6 4.8 0.00 0.00 0.00 93 1015.4
20260906051301 25 180 1.6 8.0 0.00 0.00 0.00 92 1015.2
20260906050756 25 140 0.0 4.8 0.00 0.00 0.00 92 1015.1
20260906050251 25 112 3.2 6.4 0.00 0.00 0.00 92 1015.2
20260906045750 25 133 3.2 8.0 0.00 0.00 0.00 92 1015.3
20260906045245 25 149 3.2 8.0 0.00 0.00 0.00 92 1014.9
20260906044741 25 195 3.2 8.0 0.00 0.00 0.00 92 1015.2
20260906044235 25 172 1.6 4.8 0.00 0.00 0.00 91 1015.1
20260906043732 26 117 6.4 9.7 0.00 0.00 0.00 91 1015.1
20260906043228 26 101 3.2 8.0 0.00 0.00 0.00 91 1014.9
20260906042727 26 173 3.2 6.4 0.00 0.00 0.00 90 1014.9
20260906042226 26 147 4.8 4.8 0.00 0.00 0.00 90 1014.7
20260906041722 26 117 3.2 8.0 0.00 0.00 0.00 90 1014.9
20260906041217 26 278 0.0 9.7 0.00 0.00 0.00 89 1014.8
20260906040713 26 188 0.0 8.0 0.00 0.00 0.00 89 1014.7
20260906040208 26 121 6.4 9.7 0.00 0.00 0.00 88 1014.7
20260906035703 26 110 1.6 6.4 0.00 0.00 0.00 88 1014.5
20260906035159 26 106 3.2 8.0 0.00 0.00 0.00 88 1014.8
20260906034653 26 47 1.6 8.0 0.00 0.00 0.00 87 1014.6
20260906034148 27 43 1.6 12.9 0.00 0.00 0.00 87 1014.5
20260906033644 26 110 4.8 6.4 0.00 0.00 0.00 88 1014.5
20260906033143 26 119 0.0 6.4 0.00 0.00 0.00 88 1014.4
20260906032640 26 112 3.2 4.8 0.00 0.00 0.00 88 1014.3
20260906032140 26 126 0.0 3.2 0.00 0.00 0.00 87 1014.4
20260906031635 26 115 1.6 4.8 0.00 0.00 0.00 86 1014.3
20260906031131 27 334 0.0 4.8 0.00 0.00 0.00 85 1014.1
20260906030630 27 146 1.6 3.2 0.00 0.00 0.00 85 1014.3
20260906030125 27 139 0.0 3.2 0.00 0.00 0.00 85 1014.2
20260906025624 27 126 3.2 4.8 0.00 0.00 0.00 84 1014.0
20260906025124 27 105 1.6 4.8 0.00 0.00 0.00 84 1014.0
20260906024619 27 110 3.2 6.4 0.00 0.00 0.00 85 1014.1
20260906024113 27 102 1.6 4.8 0.00 0.00 0.00 85 1014.1
20260906023609 27 111 3.2 3.2 0.00 0.00 0.00 84 1014.0
20260906023103 27 145 0.0 4.8 0.00 0.00 0.00 84 1013.9
20260906022559 27 71 0.0 4.8 0.00 0.00 0.00 84 1013.9
20260906022054 27 49 3.2 4.8 0.00 0.00 0.00 83 1013.9
20260906021550 27 128 1.6 4.8 0.00 0.00 0.00 83 1013.7
20260906021049 27 126 0.0 3.2 0.00 0.00 0.00 83 1013.8
20260906020548 27 312 1.6 3.2 0.00 0.00 0.00 82 1013.6
20260906020048 27 128 1.6 3.2 0.00 0.00 0.00 82 1013.7
20260906015547 27 162 0.0 3.2 0.00 0.00 0.00 82 1013.4
20260906015047 27 264 0.0 3.2 0.00 0.00 0.00 82 1013.5
20260906014542 28 101 1.6 1.6 0.00 0.00 0.00 82 1013.4
20260906014038 28 116 1.6 3.2 0.00 0.00 0.00 81 1013.2
20260906013533 28 125 0.0 3.2 0.00 0.00 0.00 81 1013.3
20260906013029 28 142 0.0 3.2 0.00 0.00 0.00 80 1013.2
20260906012524 28 127 0.0 1.6 0.00 0.00 0.00 80 1013.1
20260906012023 28 139 0.0 3.2 0.00 0.00 0.00 79 1013.2
20260906011519 28 114 0.0 3.2 0.00 0.00 0.00 79 1013.1
20260906011019 28 25 0.0 4.8 0.00 0.00 0.00 80 1013.1
20260906010514 28 126 0.0 3.2 0.00 0.00 0.00 80 1013.0
20260906010011 28 250 0.0 3.2 0.00 0.00 0.00 79 1013.1
20260906005510 28 138 1.6 1.6 0.00 0.00 0.00 79 1013.2
20260906005009 29 139 0.0 1.6 0.00 0.00 0.00 78 1013.0
20260906004509 29 338 0.0 1.6 0.00 0.00 0.00 78 1013.0
20260906004004 29 335 0.0 3.2 0.00 0.00 0.00 77 1012.9
20260906003459 30 138 0.0 3.2 0.00 0.00 0.00 77 1012.7
20260906002954 30 118 1.6 4.8 0.00 0.00 0.00 76 1012.9
20260906002455 30 152 1.6 4.8 0.00 0.00 0.00 76 1012.9
20260906001950 30 133 1.6 4.8 0.00 0.00 0.00 75 1012.7
20260906001446 30 113 3.2 4.8 0.00 0.00 0.00 75 1012.7
20260906000940 30 125 3.2 4.8 0.00 0.00 0.00 74 1013.0
20260906000436 30 132 3.2 6.4 0.00 0.00 0.00 73 1013.0
20260905235930 31 119 3.2 6.4 0.00 0.00 0.00 72 1012.9
20260905235430 31 67 3.2 6.4 0.00 0.00 0.00 71 1013.0
20260905234925 31 145 3.2 4.8 0.00 0.00 0.00 71 1013.1
20260905234420 31 180 0.0 6.4 0.00 0.00 0.00 70 1012.9
20260905233915 31 93 3.2 6.4 0.00 0.00 0.00 70 1013.1
20260905233410 31 40 3.2 8.0 0.00 0.00 0.00 70 1012.9
20260905232909 31 344 1.6 6.4 0.00 0.00 0.00 70 1012.8
20260905232405 32 23 4.8 6.4 0.00 0.00 0.00 69 1012.7
20260905231900 32 128 6.4 6.4 0.00 0.00 0.00 67 1012.8
20260905231356 32 13 0.0 6.4 0.00 0.00 0.00 67 1012.8
20260905230853 32 58 1.6 11.3 0.00 0.00 0.00 66 1012.8
20260905230350 32 134 3.2 6.4 0.00 0.00 0.00 66 1012.8
20260905225849 32 52 3.2 4.8 0.00 0.00 0.00 66 1012.8
20260905225344 32 14 8.0 8.0 0.00 0.00 0.00 65 1012.8
20260905224840 32 29 6.4 6.4 0.00 0.00 0.00 65 1012.9
20260905224335 32 24 1.6 6.4 0.00 0.00 0.00 64 1012.9
20260905223830 32 3 6.4 8.0 0.00 0.00 0.00 64 1012.7
20260905223328 32 12 4.8 11.3 0.00 0.00 0.00 65 1012.7
20260905222822 32 359 6.4 9.7 0.00 0.00 0.00 66 1012.7
20260905222321 32 27 3.2 8.0 0.00 0.00 0.00 66 1012.8
20260905221818 32 21 6.4 12.9 0.00 0.00 0.00 66 1012.9
20260905221314 32 16 3.2 9.7 0.00 0.00 0.00 66 1012.7
20260905220810 32 30 8.0 9.7 0.00 0.00 0.00 65 1012.8
20260905220306 32 93 1.6 6.4 0.00 0.00 0.00 65 1012.6
20260905215805 32 12 6.4 11.3 0.00 0.00 0.00 65 1012.5
20260905215301 32 28 6.4 8.0 0.00 0.00 0.00 64 1012.5
20260905214756 32 103 3.2 3.2 0.00 0.00 0.00 65 1012.8
20260905214252 32 335 3.2 8.0 0.00 0.00 0.00 64 1012.5
20260905213747 33 24 6.4 17.7 0.00 0.00 0.00 62 1012.6
20260905213244 33 169 3.2 6.4 0.00 0.00 0.00 64 1012.4
20260905212744 33 159 3.2 9.7 0.00 0.00 0.00 64 1012.4
20260905212243 33 76 3.2 6.4 0.00 0.00 0.00 63 1012.7
20260905211743 33 351 3.2 8.0 0.00 0.00 0.00 62 1012.7
20260905211238 33 24 4.8 9.7 0.00 0.00 0.00 62 1012.5
20260905210735 34 107 8.0 8.0 0.00 0.00 0.00 60 1012.8
20260905210234 34 23 4.8 6.4 0.00 0.00 0.00 60 1012.7
20260905205733 34 9 6.4 8.0 0.00 0.00 0.00 60 1012.5
20260905205228 33 13 6.4 8.0 0.00 0.00 0.00 60 1012.5
20260905204728 34 300 1.6 6.4 0.00 0.00 0.00 59 1012.5
20260905204224 33 311 3.2 4.8 0.00 0.00 0.00 59 1012.6
20260905203723 33 126 3.2 8.0 0.00 0.00 0.00 61 1012.8
20260905203219 33 151 3.2 6.4 0.00 0.00 0.00 62 1012.7
20260905202714 33 17 4.8 9.7 0.00 0.00 0.00 62 1013.0
20260905202209 33 16 3.2 9.7 0.00 0.00 0.00 61 1013.0
20260905201704 35 14 6.4 9.7 0.00 0.00 0.00 57 1013.0
20260905201205 35 355 6.4 9.7 0.00 0.00 0.00 57 1013.1
20260905200700 34 14 3.2 8.0 0.00 0.00 0.00 58 1013.1
20260905200155 35 22 11.3 11.3 0.00 0.00 0.00 57 1013.0
20260905195654 34 2 4.8 14.5 0.00 0.00 0.00 57 1013.3
20260905195149 35 41 4.8 11.3 0.00 0.00 0.00 55 1013.3
20260905194644 34 10 3.2 8.0 0.00 0.00 0.00 56 1013.3
20260905194143 34 350 3.2 6.4 0.00 0.00 0.00 57 1013.5
20260905193638 33 321 6.4 6.4 0.00 0.00 0.00 58 1013.6
20260905193138 33 316 8.0 9.7 0.00 0.00 0.00 57 1013.8
20260905192634 35 323 4.8 11.3 0.00 0.00 0.00 57 1014.0
20260905192130 35 16 6.4 9.7 0.00 0.00 0.00 57 1013.9
20260905191630 34 329 6.4 9.7 0.00 0.00 0.00 57 1014.0
20260905191128 34 338 8.0 9.7 0.00 0.00 0.00 57 1014.1
20260905190627 34 1 3.2 11.3 0.00 0.00 0.00 56 1014.1
20260905190126 34 325 3.2 6.4 0.00 0.00 0.00 57 1014.0
20260905185626 33 298 3.2 6.4 0.00 0.00 0.00 60 1014.0
20260905185126 33 294 8.0 9.7 0.00 0.00 0.00 59 1014.0
20260905184620 33 309 6.4 9.7 0.00 0.00 0.00 59 1014.1
20260905184119 33 307 6.4 8.0 0.00 0.00 0.00 59 1014.1
20260905183618 33 266 6.4 8.0 0.00 0.00 0.00 58 1014.3
20260905183114 33 306 6.4 9.7 0.00 0.00 0.00 55 1014.2
20260905182613 33 332 11.3 11.3 0.00 0.00 0.00 55 1014.4
20260905182113 33 300 4.8 8.0 0.00 0.00 0.00 59 1014.3
20260905181608 34 351 3.2 8.0 0.00 0.00 0.00 56 1014.5
20260905181107 33 15 3.2 6.4 0.00 0.00 0.00 55 1014.6
20260905180602 33 359 4.8 11.3 0.00 0.00 0.00 58 1014.5
20260905180057 33 316 6.4 6.4 0.00 0.00 0.00 60 1014.5
20260905175556 33 341 4.8 6.4 0.00 0.00 0.00 62 1014.5
20260905175052 32 274 4.8 12.9 0.00 0.00 0.00 63 1014.6
20260905174548 33 302 9.7 11.3 0.00 0.00 0.00 61 1014.4
20260905174043 32 328 6.4 9.7 0.00 0.00 0.00 59 1014.8
20260905173540 32 319 6.4 6.4 0.00 0.00 0.00 62 1014.6
20260905173035 32 4 6.4 9.7 0.00 0.00 0.00 61 1014.6
20260905172533 32 291 4.8 6.4 0.00 0.00 0.00 61 1014.4
20260905172028 32 307 6.4 9.7 0.00 0.00 0.00 61 1014.3
20260905171525 32 297 3.2 6.4 0.00 0.00 0.00 61 1014.5
20260905171021 33 286 6.4 9.7 0.00 0.00 0.00 60 1014.4
20260905170517 32 309 4.8 11.3 0.00 0.00 0.00 64 1014.4
20260905170012 33 330 8.0 11.3 0.00 0.00 0.00 61 1014.5
20260905165507 33 357 3.2 6.4 0.00 0.00 0.00 59 1014.8
20260905165002 33 323 3.2 6.4 0.00 0.00 0.00 60 1014.5
20260905164501 32 8 3.2 4.8 0.00 0.00 0.00 63 1014.4
20260905163956 32 256 3.2 8.0 0.00 0.00 0.00 65 1014.6
20260905163453 32 328 6.4 9.7 0.00 0.00 0.00 64 1014.7
20260905162948 32 279 4.8 8.0 0.00 0.00 0.00 66 1014.6